Terminal Aerodrome Forecast
Issued by NWS Jackson, MS

Home | Current Version | Previous Version | Text Only | Print | Product List | Glossary On
Versions: 1 2 3 4 5 6 7 8 9 10 11 12 13
000
FTUS44 KJAN 301100
TAFJAN
TAF
KJAN 301120Z 3012/3112 00000KT P6SM SKC
     FM301400 01008KT P6SM SCT250
     FM310200 00000KT P6SM BKN250=

USA.gov is the U.S. government's official web portal to all federal, state and local government web resources and services.